Location: Newark
(42.9260°N, 89.3850°W)
Time: 08:54:15
(UTC+00:00)

STARLINK 1039 - Pass Details

Date: 11 December 2019
Orbit: 548 x 551 km, 53.0° (Epoch: 18 January)

Event Time Altitude Azimuth Distance (km) Brightness Sun altitude
Exits shadow 10:10:26 20° 82° (E) 1,342 6.2 -33.5°
Drops below altitude 10° 10:11:57 10° 93° (E) 1,856 7.1 -33.2°
Enters shadow 11:11:40 -64° 305° (NW) 12,102 10.4 -22.3°
Maximum altitude 11:47:50 48° 223° (SW) 742 4.0 -15.9°
